GALILEO-PFM 1 37846U 11060A 25136.31697863 -.00000069 00000-0 00000-0 0 9992 2 37846 57.1000 352.5187 0003743 35.3161 324.7535 1.70475880 84359 GALILEO-FM2 1 37847U 11060B 25133.01094310 -.00000078 00000-0 00000-0 0 9995 2 37847 57.1000 352.6082 0004063 4.4338 171.9819 1.70476113 84306 GALILEO 5 (261) 1 40128U 14050A 25134.56643698 -.00000055 00000-0 00000-0 0 9998 2 40128 49.3110 289.6871 1629244 164.0202 201.8119 1.85519796 70920 GALILEO 6 (262) 1 40129U 14050B 25136.44043158 -.00000042 00000-0 00000-0 0 9999 2 40129 49.3246 288.6926 1629401 164.8693 200.6700 1.85520377 73123 GALILEO 7 (263) 1 40544U 15017A 25136.09571344 -.00000070 00000-0 00000-0 0 9999 2 40544 56.8933 352.4134 0002511 291.2038 68.8140 1.70475923 62439 GALILEO 8 (264) 1 40545U 15017B 25135.17744687 -.00000072 00000-0 00000-0 0 9992 2 40545 56.9002 352.4551 0001744 269.5085 90.5176 1.70475712 25467 GALILEO 10 (206) 1 40890U 15045B 25135.75283000 .00000016 00000-0 00000-0 0 9994 2 40890 55.0776 232.5784 0003327 71.5526 288.5306 1.70474085 60267 GALILEO 12 (269) 1 41174U 15079A 25135.33469095 .00000048 00000-0 00000-0 0 9996 2 41174 55.5927 112.1859 0005580 321.1416 38.7808 1.70474174 57994 GALILEO 11 (268) 1 41175U 15079B 25136.72785137 .00000051 00000-0 00000+0 0 9992 2 41175 55.5964 112.1449 0004905 321.6070 38.3229 1.70474041 58595 GALILEO 14 (26B) 1 41549U 16030A 25134.50538436 .00000011 00000-0 00000-0 0 9994 2 41549 55.2265 232.6597 0002156 2.6204 357.4218 1.70474309 55872 GALILEO 13 (26A) 1 41550U 16030B 25134.76315519 .00000012 00000-0 00000-0 0 9990 2 41550 55.2258 232.6510 0002926 217.7463 142.2758 1.70474790 55875 GALILEO 16 (26C) 1 41860U 16069B 25135.48200772 .00000048 00000-0 00000-0 0 9999 2 41860 55.2561 112.0981 0004462 331.4317 28.5064 1.70474296 52872 GALILEO 17 (26D) 1 41861U 16069C 25135.26344384 .00000047 00000-0 00000-0 0 9993 2 41861 55.2600 112.1115 0005798 294.9307 64.9716 1.70474567 52736 GALILEO 18 (26E) 1 41862U 16069D 25135.99563569 .00000049 00000-0 00000-0 0 9994 2 41862 55.2591 112.0844 0004859 299.1285 60.7861 1.70474330 52871